Location: ????????
(60.5616°N, 46.8254°E)
Time: 21:16:00
(UTC+00:00)

Cosmos 1464 Rocket - Pass Details

Date: 18 February 2020
Orbit: 952 x 1002 km, 82.9° (Epoch: 29 March)

Event Time Altitude Azimuth Distance (km) Brightness Sun altitude
Rises 17:46:14 0° 201° (SSW) 3,708 6.9 -29.0°
Reaches altitude 10° 17:48:46 10° 204° (SSW) 2,767 6.3 -29.2°
Maximum altitude 17:55:07 69° 288° (WNW) 1,072 4.2 -29.9°
Drops below altitude 10° 18:01:32 10° 12° (NNE) 2,790 6.6 -30.5°
Sets 18:04:06 0° 15° (NNE) 3,741 7.3 -30.8°
